| time (UTC) | temp F | wind direction | speed MPH | gust MPH | rain 1hr in | rain 24hr in | rain mn in | humidity % | barometer mb |
| 20260509204019 | 66 | 275 | 2.0 | 10.0 | 0.00 | 0.00 | 0.00 | 67 | 1013.4 |
| 20260509203518 | 66 | 314 | 2.0 | 10.0 | 0.00 | 0.00 | 0.00 | 67 | 1013.4 |
| 20260509203019 | 67 | 237 | 4.0 | 9.0 | 0.00 | 0.00 | 0.00 | 67 | 1013.4 |
| 20260509202518 | 66 | 288 | 5.0 | 10.0 | 0.00 | 0.00 | 0.00 | 67 | 1013.4 |
| 20260509202021 | 66 | 289 | 4.0 | 12.0 | 0.00 | 0.00 | 0.00 | 67 | 1013.4 |
| 20260509201518 | 66 | 272 | 7.0 | 12.0 | 0.00 | 0.00 | 0.00 | 67 | 1013.5 |
| 20260509201018 | 66 | 278 | 4.0 | 10.0 | 0.00 | 0.00 | 0.00 | 68 | 1013.5 |
| 20260509200517 | 66 | 285 | 3.0 | 10.0 | 0.00 | 0.00 | 0.00 | 69 | 1013.6 |
| 20260509200152 | 66 | 282 | 5.0 | 10.0 | 0.00 | 0.00 | 0.00 | 68 | 1013.6 |
| 20260509195551 | 66 | 267 | 5.0 | 10.0 | 0.00 | 0.00 | 0.00 | 68 | 1013.6 |
| 20260509195049 | 66 | 273 | 3.0 | 10.0 | 0.00 | 0.00 | 0.00 | 68 | 1013.8 |
| 20260509194549 | 66 | 262 | 4.0 | 10.0 | 0.00 | 0.00 | 0.00 | 68 | 1013.8 |
| 20260509194048 | 66 | 281 | 3.0 | 11.0 | 0.00 | 0.00 | 0.00 | 69 | 1013.9 |
| 20260509193550 | 66 | 266 | 4.0 | 11.0 | 0.00 | 0.00 | 0.00 | 68 | 1014.0 |
| 20260509193047 | 66 | 266 | 3.0 | 10.0 | 0.00 | 0.00 | 0.00 | 68 | 1014.0 |
| 20260509192546 | 66 | 279 | 3.0 | 10.0 | 0.00 | 0.00 | 0.00 | 68 | 1014.1 |
| 20260509192046 | 66 | 269 | 5.0 | 11.0 | 0.00 | 0.00 | 0.00 | 69 | 1014.1 |
| 20260509191545 | 66 | 289 | 2.0 | 11.0 | 0.00 | 0.00 | 0.00 | 68 | 1014.2 |
| 20260509191046 | 67 | 293 | 5.0 | 12.0 | 0.00 | 0.00 | 0.00 | 68 | 1014.2 |
| 20260509190542 | 66 | 314 | 6.0 | 12.0 | 0.00 | 0.00 | 0.00 | 69 | 1014.3 |
| 20260509190023 | 66 | 318 | 6.0 | 10.0 | 0.00 | 0.00 | 0.00 | 69 | 1014.3 |
| 20260509185522 | 66 | 264 | 4.0 | 10.0 | 0.00 | 0.00 | 0.00 | 70 | 1014.2 |
| 20260509185022 | 66 | 280 | 5.0 | 10.0 | 0.00 | 0.00 | 0.00 | 70 | 1014.2 |
| 20260509184526 | 66 | 316 | 3.0 | 9.0 | 0.00 | 0.00 | 0.00 | 70 | 1014.3 |
| 20260509184019 | 66 | 227 | 2.0 | 9.0 | 0.00 | 0.00 | 0.00 | 71 | 1014.2 |
| 20260509183518 | 66 | 270 | 4.0 | 9.0 | 0.00 | 0.00 | 0.00 | 71 | 1014.3 |
| 20260509183017 | 65 | 298 | 5.0 | 10.0 | 0.00 | 0.00 | 0.00 | 71 | 1014.2 |
| 20260509182516 | 65 | 290 | 3.0 | 9.0 | 0.00 | 0.00 | 0.00 | 72 | 1014.3 |
| 20260509182015 | 65 | 284 | 3.0 | 9.0 | 0.00 | 0.00 | 0.00 | 72 | 1014.4 |
| 20260509181514 | 65 | 298 | 5.0 | 9.0 | 0.00 | 0.00 | 0.00 | 73 | 1014.4 |
| 20260509181013 | 65 | 273 | 1.0 | 11.0 | 0.00 | 0.00 | 0.00 | 73 | 1014.4 |
| 20260509180509 | 64 | 296 | 1.0 | 11.0 | 0.00 | 0.00 | 0.00 | 73 | 1014.5 |
| 20260509180059 | 64 | 284 | 2.0 | 9.0 | 0.00 | 0.00 | 0.00 | 73 | 1014.4 |
| 20260509175551 | 64 | 269 | 3.0 | 9.0 | 0.00 | 0.00 | 0.00 | 74 | 1014.4 |
| 20260509175054 | 64 | 333 | 1.0 | 11.0 | 0.00 | 0.00 | 0.00 | 74 | 1014.5 |
| 20260509174549 | 64 | 310 | 4.0 | 11.0 | 0.00 | 0.00 | 0.00 | 75 | 1014.6 |
| 20260509174049 | 63 | 306 | 5.0 | 9.0 | 0.00 | 0.00 | 0.00 | 76 | 1014.5 |
| 20260509173547 | 63 | 330 | 2.0 | 8.0 | 0.00 | 0.00 | 0.00 | 77 | 1014.5 |
| 20260509173048 | 63 | 335 | 2.0 | 9.0 | 0.00 | 0.00 | 0.00 | 77 | 1014.5 |
| 20260509172544 | 62 | 293 | 3.0 | 9.0 | 0.00 | 0.00 | 0.00 | 78 | 1014.5 |
| 20260509172044 | 62 | 306 | 3.0 | 8.0 | 0.00 | 0.00 | 0.00 | 79 | 1014.5 |
| 20260509171546 | 62 | 273 | 0.0 | 6.0 | 0.00 | 0.00 | 0.00 | 80 | 1014.4 |
| 20260509171040 | 61 | 269 | 1.0 | 6.0 | 0.00 | 0.00 | 0.00 | 81 | 1014.5 |
| 20260509170539 | 60 | 336 | 2.0 | 6.0 | 0.00 | 0.00 | 0.00 | 83 | 1014.5 |
| 20260509170032 | 60 | 288 | 1.0 | 5.0 | 0.00 | 0.00 | 0.00 | 85 | 1014.5 |
| 20260509165529 | 59 | 131 | 0.0 | 4.0 | 0.00 | 0.00 | 0.00 | 86 | 1014.5 |
| 20260509165030 | 58 | 298 | 0.0 | 6.0 | 0.00 | 0.00 | 0.00 | 87 | 1014.7 |
| 20260509164527 | 58 | 288 | 0.0 | 2.0 | 0.00 | 0.00 | 0.00 | 88 | 1014.7 |
| 20260509164028 | 57 | 215 | 0.0 | 3.0 | 0.00 | 0.00 | 0.00 | 88 | 1014.7 |
| 20260509163527 | 57 | 215 | 0.0 | 3.0 | 0.00 | 0.00 | 0.00 | 89 | 1014.7 |
| 20260509163025 | 56 | 137 | 0.0 | 3.0 | 0.00 | 0.00 | 0.00 | 89 | 1014.7 |
| 20260509162522 | 55 | 195 | 1.0 | 4.0 | 0.00 | 0.00 | 0.00 | 89 | 1014.7 |
| 20260509162021 | 55 | 139 | 0.0 | 2.0 | 0.00 | 0.00 | 0.00 | 89 | 1014.8 |
| 20260509161520 | 54 | 112 | 0.0 | 3.0 | 0.00 | 0.00 | 0.00 | 89 | 1014.9 |
| 20260509161018 | 54 | 120 | 0.0 | 3.0 | 0.00 | 0.00 | 0.00 | 89 | 1014.8 |
| 20260509160519 | 54 | 110 | 0.0 | 2.0 | 0.00 | 0.00 | 0.00 | 89 | 1014.9 |
| 20260509160057 | 53 | 304 | 0.0 | 2.0 | 0.00 | 0.00 | 0.00 | 89 | 1014.9 |
| 20260509155555 | 53 | 260 | 0.0 | 1.0 | 0.00 | 0.00 | 0.00 | 89 | 1014.9 |
| 20260509155054 | 53 | 260 | 0.0 | 1.0 | 0.00 | 0.00 | 0.00 | 89 | 1014.9 |
| 20260509154558 | 53 | 260 | 0.0 | 1.0 | 0.00 | 0.00 | 0.00 | 89 | 1014.9 |
| 20260509154052 | 53 | 260 | 0.0 | 1.0 | 0.00 | 0.00 | 0.00 | 89 | 1014.9 |
| 20260509153550 | 53 | 96 | 0.0 | 0.0 | 0.00 | 0.00 | 0.00 | 89 | 1014.9 |
| 20260509153055 | 53 | 97 | 0.0 | 0.0 | 0.00 | 0.00 | 0.00 | 89 | 1014.8 |
| 20260509152550 | 52 | 64 | 0.0 | 0.0 | 0.00 | 0.00 | 0.00 | 89 | 1014.8 |
| 20260509152050 | 52 | 65 | 0.0 | 1.0 | 0.00 | 0.00 | 0.00 | 89 | 1014.8 |
| 20260509151547 | 52 | 223 | 0.0 | 0.0 | 0.00 | 0.00 | 0.00 | 89 | 1014.9 |
| 20260509151047 | 52 | 223 | 0.0 | 0.0 | 0.00 | 0.00 | 0.00 | 89 | 1014.8 |
| 20260509150546 | 52 | 222 | 0.0 | 1.0 | 0.00 | 0.00 | 0.00 | 89 | 1014.8 |
| 20260509150033 | 52 | 222 | 0.0 | 1.0 | 0.00 | 0.00 | 0.00 | 89 | 1014.7 |
| 20260509145520 | 51 | 75 | 0.0 | 3.0 | 0.00 | 0.00 | 0.00 | 89 | 1014.7 |
| 20260509145019 | 51 | 95 | 0.0 | 4.0 | 0.00 | 0.00 | 0.00 | 89 | 1014.7 |
| 20260509144529 | 51 | 148 | 2.0 | 4.0 | 0.00 | 0.00 | 0.00 | 89 | 1014.7 |
| 20260509144021 | 51 | 160 | 2.0 | 5.0 | 0.00 | 0.00 | 0.00 | 89 | 1014.8 |
| 20260509143516 | 51 | 131 | 2.0 | 5.0 | 0.00 | 0.00 | 0.00 | 88 | 1014.7 |
| 20260509143016 | 51 | 126 | 1.0 | 4.0 | 0.00 | 0.00 | 0.00 | 88 | 1014.8 |
| 20260509142515 | 51 | 170 | 1.0 | 4.0 | 0.00 | 0.00 | 0.00 | 88 | 1014.9 |
| 20260509142014 | 51 | 170 | 2.0 | 4.0 | 0.00 | 0.00 | 0.00 | 88 | 1015.0 |
| 20260509141520 | 51 | 154 | 2.0 | 5.0 | 0.00 | 0.00 | 0.00 | 88 | 1014.9 |
| 20260509141017 | 51 | 171 | 2.0 | 5.0 | 0.00 | 0.00 | 0.00 | 89 | 1014.9 |
| 20260509140501 | 52 | 33 | 0.0 | 0.0 | 0.00 | 0.00 | 0.00 | 89 | 1014.9 |
| 20260509140105 | 51 | 31 | 0.0 | 2.0 | 0.00 | 0.00 | 0.00 | 89 | 1014.9 |
| 20260509135559 | 51 | 30 | 0.0 | 3.0 | 0.00 | 0.00 | 0.00 | 89 | 1014.8 |
| 20260509135058 | 51 | 46 | 0.0 | 3.0 | 0.00 | 0.00 | 0.00 | 89 | 1014.7 |
| 20260509134628 | 51 | 111 | 0.0 | 0.0 | 0.00 | 0.00 | 0.00 | 89 | 1014.7 |
| 20260509134101 | 51 | 149 | 0.0 | 0.0 | 0.00 | 0.00 | 0.00 | 88 | 1014.7 |
| 20260509133557 | 51 | 149 | 0.0 | 0.0 | 0.00 | 0.00 | 0.00 | 88 | 1014.7 |
| 20260509133059 | 51 | 149 | 0.0 | 0.0 | 0.00 | 0.00 | 0.00 | 88 | 1014.6 |
| 20260509132556 | 51 | 149 | 0.0 | 0.0 | 0.00 | 0.00 | 0.00 | 88 | 1014.7 |
| 20260509132056 | 51 | 140 | 0.0 | 0.0 | 0.00 | 0.00 | 0.00 | 88 | 1014.5 |
| 20260509131556 | 51 | 156 | 0.0 | 1.0 | 0.00 | 0.00 | 0.00 | 88 | 1014.4 |
| 20260509131055 | 51 | 156 | 0.0 | 1.0 | 0.00 | 0.00 | 0.00 | 88 | 1014.5 |
| 20260509130555 | 51 | 162 | 0.0 | 1.0 | 0.00 | 0.00 | 0.00 | 88 | 1014.2 |
| 20260509130055 | 51 | 156 | 0.0 | 1.0 | 0.00 | 0.00 | 0.00 | 88 | 1014.2 |
| 20260509125554 | 51 | 156 | 0.0 | 1.0 | 0.00 | 0.00 | 0.00 | 88 | 1014.2 |
| 20260509125053 | 51 | 156 | 0.0 | 2.0 | 0.00 | 0.00 | 0.00 | 88 | 1014.1 |
| 20260509124554 | 51 | 156 | 0.0 | 3.0 | 0.00 | 0.00 | 0.00 | 88 | 1014.0 |
| 20260509124153 | 51 | 156 | 0.0 | 3.0 | 0.00 | 0.00 | 0.00 | 88 | 1014.0 |
| 20260509123552 | 51 | 156 | 0.0 | 0.0 | 0.00 | 0.00 | 0.00 | 88 | 1014.1 |
| 20260509123054 | 51 | 156 | 0.0 | 0.0 | 0.00 | 0.00 | 0.00 | 88 | 1014.2 |
| 20260509122551 | 51 | 156 | 0.0 | 1.0 | 0.00 | 0.00 | 0.00 | 88 | 1014.2 |
| 20260509122051 | 51 | 156 | 0.0 | 1.0 | 0.00 | 0.00 | 0.00 | 88 | 1014.3 |
| 20260509121553 | 51 | 156 | 0.0 | 1.0 | 0.00 | 0.00 | 0.00 | 88 | 1014.3 |
| 20260509121052 | 51 | 156 | 0.0 | 1.0 | 0.00 | 0.00 | 0.00 | 88 | 1014.3 |
| 20260509120550 | 51 | 156 | 0.0 | 0.0 | 0.00 | 0.00 | 0.00 | 88 | 1014.3 |
| 20260509120049 | 51 | 156 | 0.0 | 2.0 | 0.00 | 0.00 | 0.00 | 88 | 1014.3 |
| 20260509115547 | 51 | 156 | 0.0 | 2.0 | 0.00 | 0.00 | 0.00 | 87 | 1014.3 |
| 20260509115048 | 51 | 156 | 0.0 | 2.0 | 0.00 | 0.00 | 0.00 | 87 | 1014.3 |
| 20260509114547 | 51 | 156 | 0.0 | 3.0 | 0.00 | 0.00 | 0.00 | 87 | 1014.4 |
| 20260509114046 | 52 | 156 | 0.0 | 3.0 | 0.00 | 0.00 | 0.00 | 87 | 1014.4 |
| 20260509113547 | 52 | 156 | 0.0 | 2.0 | 0.00 | 0.00 | 0.00 | 87 | 1014.5 |
| 20260509113051 | 52 | 156 | 0.0 | 2.0 | 0.00 | 0.00 | 0.00 | 87 | 1014.4 |
| 20260509112545 | 52 | 156 | 0.0 | 2.0 | 0.00 | 0.00 | 0.00 | 87 | 1014.5 |
| 20260509112046 | 52 | 156 | 0.0 | 0.0 | 0.00 | 0.00 | 0.00 | 87 | 1014.5 |
| 20260509111545 | 52 | 156 | 0.0 | 2.0 | 0.00 | 0.00 | 0.00 | 87 | 1014.5 |
| 20260509111045 | 52 | 156 | 0.0 | 2.0 | 0.00 | 0.00 | 0.00 | 87 | 1014.6 |
| 20260509110548 | 52 | 156 | 0.0 | 1.0 | 0.00 | 0.00 | 0.00 | 87 | 1014.5 |
| 20260509110044 | 52 | 156 | 0.0 | 3.0 | 0.00 | 0.00 | 0.00 | 87 | 1014.5 |
| 20260509105542 | 52 | 156 | 0.0 | 3.0 | 0.00 | 0.00 | 0.00 | 87 | 1014.5 |
| 20260509105042 | 52 | 156 | 0.0 | 3.0 | 0.00 | 0.00 | 0.00 | 87 | 1014.5 |
| 20260509104541 | 52 | 158 | 0.0 | 3.0 | 0.00 | 0.00 | 0.00 | 87 | 1014.6 |
| 20260509104042 | 52 | 185 | 0.0 | 2.0 | 0.00 | 0.00 | 0.00 | 87 | 1014.7 |
| 20260509103542 | 52 | 185 | 0.0 | 3.0 | 0.00 | 0.00 | 0.00 | 87 | 1014.6 |
| 20260509103040 | 52 | 185 | 1.0 | 3.0 | 0.00 | 0.00 | 0.00 | 87 | 1014.8 |
| 20260509102540 | 52 | 185 | 0.0 | 3.0 | 0.00 | 0.00 | 0.00 | 87 | 1014.8 |
| 20260509102039 | 52 | 185 | 1.0 | 3.0 | 0.00 | 0.00 | 0.00 | 87 | 1014.8 |
| 20260509101549 | 52 | 185 | 0.0 | 0.0 | 0.00 | 0.00 | 0.00 | 87 | 1014.8 |
| 20260509101039 | 52 | 185 | 0.0 | 0.0 | 0.00 | 0.00 | 0.00 | 87 | 1014.8 |
| 20260509100540 | 52 | 185 | 0.0 | 2.0 | 0.00 | 0.00 | 0.00 | 87 | 1014.8 |
| 20260509100039 | 52 | 185 | 0.0 | 2.0 | 0.00 | 0.00 | 0.00 | 87 | 1014.8 |
| 20260509095538 | 52 | 185 | 0.0 | 2.0 | 0.00 | 0.00 | 0.00 | 87 | 1014.8 |
| 20260509095038 | 52 | 185 | 0.0 | 1.0 | 0.00 | 0.00 | 0.00 | 87 | 1014.7 |
| 20260509094537 | 52 | 185 | 0.0 | 3.0 | 0.00 | 0.00 | 0.00 | 87 | 1014.8 |
| 20260509094037 | 52 | 185 | 0.0 | 3.0 | 0.00 | 0.00 | 0.00 | 87 | 1014.8 |
| 20260509093537 | 52 | 185 | 0.0 | 3.0 | 0.00 | 0.00 | 0.00 | 87 | 1014.8 |
| 20260509093036 | 52 | 185 | 1.0 | 3.0 | 0.00 | 0.00 | 0.00 | 87 | 1014.9 |
| 20260509092536 | 52 | 185 | 0.0 | 4.0 | 0.00 | 0.00 | 0.00 | 86 | 1014.9 |
| 20260509092034 | 52 | 185 | 2.0 | 4.0 | 0.00 | 0.00 | 0.00 | 86 | 1014.8 |
| 20260509091533 | 52 | 244 | 1.0 | 4.0 | 0.00 | 0.00 | 0.00 | 86 | 1015.0 |
| 20260509091036 | 52 | 269 | 0.0 | 3.0 | 0.00 | 0.00 | 0.00 | 86 | 1015.0 |
| 20260509090533 | 52 | 269 | 0.0 | 3.0 | 0.00 | 0.00 | 0.00 | 86 | 1015.1 |
| 20260509090033 | 52 | 269 | 0.0 | 3.0 | 0.00 | 0.00 | 0.00 | 86 | 1015.0 |
| 20260509085531 | 52 | 269 | 0.0 | 4.0 | 0.00 | 0.00 | 0.00 | 86 | 1015.0 |
| 20260509085031 | 52 | 269 | 0.0 | 5.0 | 0.00 | 0.00 | 0.00 | 86 | 1015.0 |
| 20260509084530 | 52 | 226 | 1.0 | 3.0 | 0.00 | 0.00 | 0.00 | 86 | 1015.1 |
| 20260509084030 | 52 | 218 | 0.0 | 2.0 | 0.00 | 0.00 | 0.00 | 86 | 1015.1 |
| 20260509083532 | 52 | 218 | 0.0 | 2.0 | 0.00 | 0.00 | 0.00 | 86 | 1015.1 |
| 20260509083031 | 52 | 218 | 0.0 | 2.0 | 0.00 | 0.00 | 0.00 | 86 | 1015.1 |
| 20260509082529 | 52 | 218 | 0.0 | 1.0 | 0.00 | 0.00 | 0.00 | 86 | 1015.2 |
| 20260509082028 | 52 | 218 | 0.0 | 3.0 | 0.00 | 0.00 | 0.00 | 86 | 1015.2 |
| 20260509081532 | 52 | 218 | 0.0 | 3.0 | 0.00 | 0.00 | 0.00 | 86 | 1015.3 |
| 20260509081028 | 53 | 156 | 0.0 | 2.0 | 0.00 | 0.00 | 0.00 | 86 | 1015.3 |
| 20260509080629 | 53 | 156 | 0.0 | 2.0 | 0.00 | 0.00 | 0.00 | 86 | 1015.3 |
| 20260509080025 | 53 | 156 | 0.0 | 4.0 | 0.00 | 0.00 | 0.00 | 86 | 1015.3 |
| 20260509075525 | 53 | 156 | 1.0 | 4.0 | 0.00 | 0.00 | 0.00 | 85 | 1015.4 |
| 20260509075025 | 53 | 78 | 0.0 | 2.0 | 0.00 | 0.00 | 0.00 | 85 | 1015.4 |
| 20260509074525 | 52 | 65 | 0.0 | 2.0 | 0.00 | 0.00 | 0.00 | 85 | 1015.4 |
| 20260509074024 | 52 | 65 | 0.0 | 3.0 | 0.00 | 0.00 | 0.00 | 85 | 1015.5 |
| 20260509073524 | 52 | 65 | 0.0 | 3.0 | 0.00 | 0.00 | 0.00 | 85 | 1015.4 |
| 20260509073023 | 52 | 65 | 0.0 | 0.0 | 0.00 | 0.00 | 0.00 | 85 | 1015.5 |
| 20260509072523 | 52 | 65 | 0.0 | 0.0 | 0.00 | 0.00 | 0.00 | 85 | 1015.5 |
| 20260509072026 | 52 | 65 | 0.0 | 0.0 | 0.00 | 0.00 | 0.00 | 85 | 1015.6 |
| 20260509071522 | 52 | 65 | 0.0 | 0.0 | 0.00 | 0.00 | 0.00 | 85 | 1015.5 |
| 20260509071023 | 52 | 65 | 0.0 | 0.0 | 0.00 | 0.00 | 0.00 | 84 | 1015.5 |
| 20260509070524 | 52 | 65 | 0.0 | 0.0 | 0.00 | 0.00 | 0.00 | 84 | 1015.5 |
| 20260509070019 | 52 | 65 | 0.0 | 0.0 | 0.00 | 0.00 | 0.00 | 84 | 1015.6 |
| 20260509065519 | 52 | 65 | 0.0 | 0.0 | 0.00 | 0.00 | 0.00 | 84 | 1015.6 |
| 20260509065019 | 52 | 65 | 0.0 | 2.0 | 0.00 | 0.00 | 0.00 | 84 | 1015.6 |
| 20260509064519 | 52 | 65 | 0.0 | 1.0 | 0.00 | 0.00 | 0.00 | 83 | 1015.6 |
| 20260509064021 | 52 | 65 | 0.0 | 0.0 | 0.00 | 0.00 | 0.00 | 83 | 1015.6 |
| 20260509063518 | 52 | 65 | 0.0 | 0.0 | 0.00 | 0.00 | 0.00 | 83 | 1015.7 |
| 20260509063018 | 53 | 65 | 0.0 | 0.0 | 0.00 | 0.00 | 0.00 | 83 | 1015.9 |
| 20260509062519 | 53 | 65 | 0.0 | 0.0 | 0.00 | 0.00 | 0.00 | 83 | 1015.9 |
| 20260509062019 | 53 | 65 | 0.0 | 0.0 | 0.00 | 0.00 | 0.00 | 83 | 1016.0 |
| 20260509061519 | 53 | 65 | 0.0 | 0.0 | 0.00 | 0.00 | 0.00 | 83 | 1015.8 |
| 20260509061018 | 53 | 65 | 0.0 | 0.0 | 0.00 | 0.00 | 0.00 | 83 | 1015.9 |
| 20260509060518 | 53 | 65 | 0.0 | 0.0 | 0.00 | 0.00 | 0.00 | 82 | 1015.8 |
| 20260509060018 | 53 | 65 | 0.0 | 0.0 | 0.00 | 0.00 | 0.00 | 82 | 1015.7 |
| 20260509055518 | 53 | 65 | 0.0 | 0.0 | 0.00 | 0.00 | 0.00 | 82 | 1015.7 |
| 20260509055018 | 53 | 65 | 0.0 | 2.0 | 0.00 | 0.00 | 0.00 | 82 | 1015.7 |
| 20260509054517 | 53 | 65 | 0.0 | 2.0 | 0.00 | 0.00 | 0.00 | 82 | 1015.8 |
| 20260509054017 | 53 | 65 | 0.0 | 2.0 | 0.00 | 0.00 | 0.00 | 82 | 1015.8 |
| 20260509053517 | 53 | 65 | 0.0 | 1.0 | 0.00 | 0.00 | 0.00 | 82 | 1015.8 |
| 20260509053016 | 54 | 65 | 0.0 | 1.0 | 0.00 | 0.00 | 0.00 | 81 | 1015.8 |
| 20260509052516 | 54 | 65 | 0.0 | 1.0 | 0.00 | 0.00 | 0.00 | 81 | 1015.7 |
| 20260509052016 | 54 | 65 | 0.0 | 3.0 | 0.00 | 0.00 | 0.00 | 81 | 1015.7 |
| 20260509051518 | 54 | 65 | 0.0 | 3.0 | 0.00 | 0.00 | 0.00 | 81 | 1015.7 |
| 20260509051017 | 54 | 65 | 0.0 | 3.0 | 0.00 | 0.00 | 0.00 | 81 | 1015.7 |
| 20260509050520 | 54 | 40 | 0.0 | 4.0 | 0.00 | 0.00 | 0.00 | 81 | 1015.7 |
| 20260509050010 | 54 | 40 | 0.0 | 7.0 | 0.00 | 0.00 | 0.00 | 80 | 1015.7 |
| 20260509045509 | 55 | 88 | 1.0 | 6.0 | 0.00 | 0.00 | 0.00 | 80 | 1015.7 |
| 20260509045009 | 55 | 52 | 1.0 | 5.0 | 0.00 | 0.00 | 0.00 | 80 | 1015.6 |
| 20260509044509 | 55 | 49 | 1.0 | 6.0 | 0.00 | 0.00 | 0.00 | 79 | 1015.6 |
| 20260509044009 | 55 | 42 | 0.0 | 7.0 | 0.00 | 0.00 | 0.00 | 79 | 1015.6 |
| 20260509043516 | 55 | 42 | 2.0 | 7.0 | 0.00 | 0.00 | 0.00 | 79 | 1015.5 |
| 20260509043009 | 55 | 54 | 2.0 | 6.0 | 0.00 | 0.00 | 0.00 | 79 | 1015.6 |
| 20260509042509 | 55 | 40 | 2.0 | 6.0 | 0.00 | 0.00 | 0.00 | 78 | 1015.5 |
| 20260509042010 | 55 | 61 | 0.0 | 6.0 | 0.00 | 0.00 | 0.00 | 78 | 1015.4 |
| 20260509041508 | 56 | 44 | 2.0 | 6.0 | 0.00 | 0.00 | 0.00 | 78 | 1015.5 |
| 20260509041009 | 56 | 58 | 2.0 | 8.0 | 0.00 | 0.00 | 0.00 | 78 | 1015.3 |
| 20260509040509 | 56 | 41 | 3.0 | 8.0 | 0.00 | 0.00 | 0.00 | 77 | 1015.2 |
| 20260509040047 | 56 | 48 | 1.0 | 6.0 | 0.00 | 0.00 | 0.00 | 77 | 1015.2 |
| 20260509035546 | 56 | 36 | 2.0 | 6.0 | 0.00 | 0.00 | 0.00 | 77 | 1015.2 |
| 20260509035046 | 57 | 58 | 1.0 | 6.0 | 0.00 | 0.00 | 0.00 | 76 | 1015.2 |
| 20260509034552 | 57 | 43 | 2.0 | 6.0 | 0.00 | 0.00 | 0.00 | 76 | 1015.1 |
| 20260509034045 | 57 | 53 | 1.0 | 6.0 | 0.00 | 0.00 | 0.00 | 76 | 1015.1 |
| 20260509033546 | 57 | 37 | 3.0 | 7.0 | 0.00 | 0.00 | 0.00 | 75 | 1015.1 |
| 20260509033052 | 58 | 33 | 3.0 | 7.0 | 0.00 | 0.00 | 0.00 | 75 | 1015.0 |
| 20260509032546 | 58 | 23 | 2.0 | 7.0 | 0.00 | 0.00 | 0.00 | 74 | 1015.0 |
| 20260509032047 | 58 | 29 | 1.0 | 7.0 | 0.00 | 0.00 | 0.00 | 74 | 1015.0 |
| 20260509031545 | 58 | 48 | 2.0 | 7.0 | 0.00 | 0.00 | 0.00 | 74 | 1015.0 |
| 20260509031045 | 59 | 49 | 2.0 | 7.0 | 0.00 | 0.00 | 0.00 | 73 | 1014.8 |
| 20260509030545 | 59 | 2 | 3.0 | 7.0 | 0.00 | 0.00 | 0.00 | 73 | 1014.7 |
| 20260509030039 | 59 | 39 | 2.0 | 9.0 | 0.00 | 0.00 | 0.00 | 72 | 1014.8 |
| 20260509025538 | 60 | 66 | 2.0 | 9.0 | 0.00 | 0.00 | 0.00 | 72 | 1014.7 |
| 20260509025039 | 60 | 69 | 1.0 | 8.0 | 0.00 | 0.00 | 0.00 | 71 | 1014.7 |
| 20260509024539 | 61 | 59 | 1.0 | 7.0 | 0.00 | 0.00 | 0.00 | 71 | 1014.6 |
| 20260509024038 | 61 | 81 | 1.0 | 6.0 | 0.00 | 0.00 | 0.00 | 70 | 1014.5 |
| 20260509023538 | 61 | 33 | 3.0 | 7.0 | 0.00 | 0.00 | 0.00 | 70 | 1014.5 |
| 20260509023037 | 62 | 44 | 2.0 | 7.0 | 0.00 | 0.00 | 0.00 | 69 | 1014.5 |
| 20260509022537 | 62 | 29 | 2.0 | 6.0 | 0.00 | 0.00 | 0.00 | 69 | 1014.5 |
| 20260509022037 | 62 | 41 | 2.0 | 6.0 | 0.00 | 0.00 | 0.00 | 69 | 1014.3 |
| 20260509021540 | 63 | 39 | 2.0 | 6.0 | 0.00 | 0.00 | 0.00 | 68 | 1014.3 |
| 20260509021036 | 63 | 32 | 2.0 | 6.0 | 0.00 | 0.00 | 0.00 | 68 | 1014.2 |
| 20260509020536 | 64 | 37 | 2.0 | 6.0 | 0.00 | 0.00 | 0.00 | 68 | 1014.3 |
| 20260509020020 | 64 | 37 | 1.0 | 6.0 | 0.00 | 0.00 | 0.00 | 67 | 1014.3 |
| 20260509015519 | 65 | 38 | 2.0 | 7.0 | 0.00 | 0.00 | 0.00 | 67 | 1014.2 |
| 20260509015018 | 65 | 38 | 2.0 | 7.0 | 0.00 | 0.00 | 0.00 | 66 | 1014.3 |
| 20260509014519 | 65 | 33 | 0.0 | 6.0 | 0.00 | 0.00 | 0.00 | 66 | 1014.3 |
| 20260509014018 | 66 | 54 | 2.0 | 6.0 | 0.00 | 0.00 | 0.00 | 65 | 1014.2 |
| 20260509013522 | 66 | 32 | 2.0 | 7.0 | 0.00 | 0.00 | 0.00 | 65 | 1014.3 |
| 20260509013018 | 67 | 20 | 1.0 | 5.0 | 0.00 | 0.00 | 0.00 | 65 | 1014.2 |
| 20260509012518 | 67 | 40 | 1.0 | 5.0 | 0.00 | 0.00 | 0.00 | 65 | 1014.2 |
| 20260509012018 | 67 | 52 | 1.0 | 5.0 | 0.00 | 0.00 | 0.00 | 64 | 1014.2 |
| 20260509011518 | 67 | 55 | 1.0 | 6.0 | 0.00 | 0.00 | 0.00 | 64 | 1014.2 |
| 20260509011019 | 68 | 13 | 0.0 | 6.0 | 0.00 | 0.00 | 0.00 | 64 | 1014.1 |
| 20260509010517 | 68 | 24 | 0.0 | 5.0 | 0.00 | 0.00 | 0.00 | 64 | 1014.1 |
| 20260509010104 | 68 | 29 | 1.0 | 6.0 | 0.00 | 0.00 | 0.00 | 64 | 1014.1 |
| 20260509005556 | 68 | 30 | 0.0 | 6.0 | 0.00 | 0.00 | 0.00 | 64 | 1014.2 |
| 20260509005056 | 69 | 25 | 0.0 | 4.0 | 0.00 | 0.00 | 0.00 | 64 | 1014.2 |
| 20260509004620 | 69 | 45 | 0.0 | 4.0 | 0.00 | 0.00 | 0.00 | 64 | 1014.2 |
| 20260509004055 | 69 | 33 | 0.0 | 6.0 | 0.00 | 0.00 | 0.00 | 64 | 1014.3 |
| 20260509003557 | 69 | 16 | 0.0 | 5.0 | 0.00 | 0.00 | 0.00 | 64 | 1014.2 |
| 20260509003054 | 69 | 30 | 0.0 | 5.0 | 0.00 | 0.00 | 0.00 | 64 | 1014.1 |
| 20260509002553 | 69 | 40 | 0.0 | 7.0 | 0.00 | 0.00 | 0.00 | 64 | 1014.2 |
| 20260509002053 | 69 | 17 | 1.0 | 7.0 | 0.00 | 0.00 | 0.00 | 64 | 1014.3 |
| 20260509001555 | 69 | 301 | 1.0 | 7.0 | 0.00 | 0.00 | 0.00 | 64 | 1014.2 |
| 20260509001053 | 69 | 273 | 2.0 | 6.0 | 0.00 | 0.00 | 0.00 | 64 | 1014.3 |
| 20260509000552 | 69 | 252 | 2.0 | 9.0 | 0.00 | 0.00 | 0.00 | 63 | 1014.4 |
| 20260509000046 | 69 | 310 | 4.0 | 9.0 | 0.00 | 0.00 | 0.00 | 64 | 1014.4 |
| 20260508235545 | 69 | 262 | 0.0 | 6.0 | 0.00 | 0.00 | 0.00 | 63 | 1014.5 |
| 20260508235047 | 70 | 268 | 1.0 | 7.0 | 0.00 | 0.00 | 0.00 | 63 | 1014.4 |
| 20260508234544 | 70 | 304 | 2.0 | 8.0 | 0.00 | 0.00 | 0.00 | 63 | 1014.4 |
| 20260508234045 | 70 | 302 | 1.0 | 10.0 | 0.00 | 0.00 | 0.00 | 63 | 1014.4 |
| 20260508233547 | 70 | 272 | 3.0 | 10.0 | 0.00 | 0.00 | 0.00 | 63 | 1014.5 |
| 20260508233043 | 70 | 271 | 4.0 | 10.0 | 0.00 | 0.00 | 0.00 | 63 | 1014.5 |
| 20260508232541 | 70 | 270 | 3.0 | 10.0 | 0.00 | 0.00 | 0.00 | 64 | 1014.6 |
| 20260508232043 | 70 | 288 | 2.0 | 9.0 | 0.00 | 0.00 | 0.00 | 64 | 1014.6 |
| 20260508231541 | 71 | 282 | 6.0 | 9.0 | 0.00 | 0.00 | 0.00 | 63 | 1014.6 |
| 20260508231041 | 70 | 291 | 2.0 | 10.0 | 0.00 | 0.00 | 0.00 | 64 | 1014.6 |
| 20260508230541 | 70 | 266 | 4.0 | 10.0 | 0.00 | 0.00 | 0.00 | 64 | 1014.7 |
| 20260508230032 | 70 | 266 | 3.0 | 9.0 | 0.00 | 0.00 | 0.00 | 65 | 1014.7 |
| 20260508225532 | 70 | 276 | 2.0 | 10.0 | 0.00 | 0.00 | 0.00 | 64 | 1014.8 |
| 20260508225031 | 70 | 212 | 2.0 | 10.0 | 0.00 | 0.00 | 0.00 | 65 | 1014.9 |
| 20260508224535 | 69 | 248 | 1.0 | 8.0 | 0.00 | 0.00 | 0.00 | 65 | 1015.0 |
| 20260508224033 | 69 | 266 | 2.0 | 10.0 | 0.00 | 0.00 | 0.00 | 65 | 1015.0 |
| 20260508223529 | 69 | 253 | 2.0 | 10.0 | 0.00 | 0.00 | 0.00 | 65 | 1014.9 |
| 20260508223041 | 68 | 271 | 4.0 | 10.0 | 0.00 | 0.00 | 0.00 | 66 | 1015.1 |
| 20260508222525 | 68 | 226 | 1.0 | 7.0 | 0.00 | 0.00 | 0.00 | 66 | 1015.1 |
| 20260508222024 | 68 | 279 | 2.0 | 10.0 | 0.00 | 0.00 | 0.00 | 66 | 1015.2 |
| 20260508221523 | 68 | 256 | 4.0 | 10.0 | 0.00 | 0.00 | 0.00 | 66 | 1015.3 |
| 20260508221022 | 67 | 274 | 2.0 | 10.0 | 0.00 | 0.00 | 0.00 | 66 | 1015.3 |
| 20260508220520 | 67 | 242 | 3.0 | 10.0 | 0.00 | 0.00 | 0.00 | 66 | 1015.3 |
| 20260508220004 | 67 | 283 | 4.0 | 10.0 | 0.00 | 0.00 | 0.00 | 67 | 1015.5 |
| 20260508215603 | 67 | 208 | 3.0 | 11.0 | 0.00 | 0.00 | 0.00 | 66 | 1015.5 |
| 20260508215002 | 67 | 269 | 4.0 | 11.0 | 0.00 | 0.00 | 0.00 | 67 | 1015.6 |
| 20260508214614 | 66 | 212 | 4.0 | 13.0 | 0.00 | 0.00 | 0.00 | 67 | 1015.6 |
| 20260508214101 | 66 | 253 | 5.0 | 13.0 | 0.00 | 0.00 | 0.00 | 67 | 1015.6 |
| 20260508214001 | 66 | 280 | 6.0 | 13.0 | 0.00 | 0.00 | 0.00 | 67 | 1015.6 |
| 20260508213559 | 66 | 250 | 3.0 | 11.0 | 0.00 | 0.00 | 0.00 | 67 | 1015.7 |
| 20260508213106 | 66 | 261 | 7.0 | 12.0 | 0.00 | 0.00 | 0.00 | 66 | 1015.8 |
| 20260508212559 | 67 | 277 | 5.0 | 12.0 | 0.00 | 0.00 | 0.00 | 66 | 1015.7 |
| 20260508212059 | 67 | 264 | 4.0 | 12.0 | 0.00 | 0.00 | 0.00 | 66 | 1015.8 |
| 20260508211558 | 67 | 291 | 6.0 | 12.0 | 0.00 | 0.00 | 0.00 | 67 | 1015.8 |
| 20260508211057 | 67 | 275 | 6.0 | 10.0 | 0.00 | 0.00 | 0.00 | 67 | 1015.9 |
| 20260508210600 | 67 | 285 | 4.0 | 11.0 | 0.00 | 0.00 | 0.00 | 67 | 1016.0 |
| 20260508210053 | 66 | 272 | 4.0 | 12.0 | 0.00 | 0.00 | 0.00 | 67 | 1016.1 |
| 20260508205550 | 66 | 289 | 4.0 | 12.0 | 0.00 | 0.00 | 0.00 | 67 | 1016.1 |
| 20260508205049 | 66 | 263 | 7.0 | 12.0 | 0.00 | 0.00 | 0.00 | 66 | 1016.1 |
| 20260508204550 | 66 | 279 | 3.0 | 12.0 | 0.00 | 0.00 | 0.00 | 67 | 1016.3 |